Retour au catalogue

STARLINK-4593

ActifCommunicationsVLEO
NORAD 53633·PAYLOAD·🇺🇸 United States

Lancé Aug 28, 2022 depuis Cape Canaveral Space Force Station

Loading…

Prochains Passages (prochaines 24 heures)

TLE

FraisSource: CelesTrak SupGP

Époque: Sep 14, 2026, 21:31 UTC

1 53633C 22104AX  26257.89701389  .00013166  00000+0  38917-3 0  2570
2 53633  53.1591  87.7245 0001279  81.6864 156.5269 15.34370917    16

Suivez STARLINK-4593 en temps réel avec AllMySat

Download on the App Store